Regional Weather Roundup
Issued by NWS Charleston, SC

Current Version | Previous Version | Graphics & Text | Print | Product List | Glossary On
Versions: 1 2 3 4 5 6 7 8 9 10 11 12 13 14 15 16 17 18 19 20 21 22 23 24 25 26 27 28 29 30 31 32 33 34 35 36 37 38 39 40 41 42 43 44 45 46 47 48 49 50
000 ASUS42 KCHS 220812 RWRCHS REGIONAL WEATHER ROUNDUP NATIONAL WEATHER SERVICE CHARLESTON SC 400 AM EDT THU JUN 22 2017 NOTE: "FAIR" INDICATES FEW OR NO CLOUDS BELOW 12,000 FEET WITH NO SIGNIFICANT WEATHER AND/OR OBSTRUCTIONS TO VISIBILITY. NOT ALL STATIONS ARE QUALITY CONTROLLED. USE DATA WITH CAUTION... ESPECIALLY DEWPOINT OBSERVATIONS. SCZ027-030-031-034>040-042>050-220900- ...SOUTHEAST SOUTH CAROLINA... CITY SKY/WX TMP DP RH WIND PRES REMARKS N CHARLESTON CLOUDY 77 75 93 CALM 30.07F WATERFRONT PRK N/A 79 78 97 CALM 30.06F JOHNS ISLAND FAIR 79 77 94 CALM 30.07F PINOPOLIS N/A 75 75 100 CALM 30.01F MONCKS CORNER FAIR 73 72 94 CALM 30.08S SUMMERVILLE FAIR 73 73 100 CALM 30.09S BEAUFORT MCAS CLOUDY 78 78 100 CALM 30.06F BEAUFORT ARPT CLOUDY 79 77 94 S6 30.06F HILTON HEAD IS MOCLDY 81 79 94 S8 30.07F WALTERBORO FOG 73 73 100 CALM 30.08S VSB 1 ALLENDALE FOG 77 77 100 CALM 30.06F VSB 1/2 ...SOUTHERN MIDLANDS AND PEE DEE... CITY SKY/WX TMP DP RH WIND PRES REMARKS GEORGETOWN FAIR 73 73 100 CALM 30.09F KINGSTREE FAIR 72 70 94 CALM 30.09S ORANGEBURG CLOUDY 75 75 100 CALM 30.08F BARNWELL FOG 77 77 100 CALM 30.08F VSB 1 AIKEN DRIZZLE 72 72 100 CALM 30.13S MANNING FAIR 73 73 100 CALM 30.09S COLUMBIA MOCLDY 75 72 90 CALM 30.08F SUMTER CLOUDY 75 73 94 CALM 30.07S FLORENCE CLOUDY 73 73 100 SW6 30.09S MYRTLE BEACH CLOUDY 78 76 93 SW5 30.09F N MYRTLE BEACH CLOUDY 78 77 96 SW6 30.08S $$ GAZ063-065-086>088-099>101-113>116-118-119-134>141-150-220900- ...SOUTHEAST GEORGIA... CITY SKY/WX TMP DP RH WIND PRES REMARKS SAVANNAH ARPT CLOUDY 77 73 87 E3 30.06F HUNTER AAF MOCLDY 78 78 100 CALM 30.04F FORT STEWART CLOUDY 75 75 100 CALM 30.02F STATESBORO FOG 76 76 100 CALM 30.06F VSB 1/2 SYLVANIA FOG 76 76 100 CALM 30.08F VSB 1 CLAXTON CLOUDY N/A N/A N/A CALM 30.05F ...CSRA...CENTRAL AND FAR SOUTHEAST GEORGIA... CITY SKY/WX TMP DP RH WIND PRES REMARKS THOMSON CLOUDY 73 71 94 CALM 30.14F AUGUSTA-BUSH CLOUDY 76 73 91 CALM 30.07F AUGUSTA-DANIEL CLOUDY 76 70 82 CALM 30.09F SWAINSBORO CLOUDY 75 75 100 CALM 30.07F FOG VIDALIA FOG 77 77 100 E3 30.05F VSB 3/4 EASTMAN PTSUNNY 77 77 100 SE3 30.07F HAZLEHURST FAIR 77 77 100 CALM 30.03F ALMA CLOUDY 76 74 93 CALM 30.04F FOG WAYCROSS PTCLDY 76 76 100 CALM 30.04F JESUP CLOUDY 79 73 83 CALM 30.05F FOG BAXLEY FAIR 77 77 100 CALM 30.04F FOG BRUNSWICK PTCLDY 79 77 94 CALM 30.05F SAINT SIMONS CLOUDY 79 76 90 E5 30.04F $$ SCZ027-028-034-036>038-045-046-048>050-GAZ119-141-220900- ...LAKE AND SUPPLEMENTAL COASTAL OBSERVATIONS... STATION/POSITION TIME TEMP WIND PRES WAVE SWELL AIR SEA DIR/SP/G HT/PER HT/PER/DIR (UTC) (F) (DEG/KT/KT) (MB) (FT/S) (FT/S/D) WINYAH BAY 0645 78 230/ 4 1019.0 LAKE MURRAY 0720 77 240/ 4/ 7 1017.9 ACE BASIN NERRS 0645 80 CALM 1019.0 FORT PULASKI 0736 80 83 180/ 2/ 5 1018.2F SAPELO ISLAND 0700 80 160/ 6 1018.0 $$ ANZ835-935-AMZ111-154-330-350-352-354-370-450-454-472-220900- ...C-MAN AND BUOY OBSERVATIONS... STATION/POSITION TIME TEMP WIND PRES WAVE SWELL AIR SEA DIR/SP/G HT/PER HT/PER/DIR (UTC) (F) (DEG/KT/KT) (MB) (FT/S) (FT/S/D) BUOY 41004 0750 80 81 210/ 8/ 12 1018.4F 3/ 7 3/150/ 7 BUOY 41008 0750 81 81 150/ 12/ 14 1017.3F 3/ 7 2/110/ 7 FOLLY BEACH CMAN 0700 81 200/ 10/ 12 1019.3F CAPERS NEARSHORE 0708 84 82 220/ 12/ 16 1018.5F FRIPP NEARSHORE 0708 81 82 200/ 12/ 16 1017.8F STATION/POSITION TIME TEMP WIND PRES WAVE SWELL AIR SEA DIR/SP/G HT/PER HT/PER/DIR (UTC) (F) (DEG/KT/KT) (MB) (FT/S) (FT/S/D) 5E ST. MARYS GA 0730 80 N/A 3/ 8 FRYING PAN BUOY 0750 80 81 210/ 10/ 12 1018.6F 3/ 7 3/160/ 7 BUOY 41025 0750 79 80 240/ 14/ 16 1018.1S 3/ 3 2/170/ 7 CAPE LOOKOUT NC 0700 78 230/ 6/ 8 1018.3F BUOY 41002 0650 81 82 200/ 14/ 16 1020.6 4/ 7 3/110/ 7 BUOY 41010 0750 82 82 150/ 12/ 16 1018.9F 6/ 8 5/130/ 8 ST AUGUSTINE FL 0800 76 77 140/ 6/ 6 1018.6F $$

USA.gov is the U.S. government's official web portal to all federal, state and local government web resources and services.